Monticello, AR

12:42 AM CST on February 08, 2016 (GMT -0600)
Monticello Municipal-Ellis

Weather History for KLLQ - July, 2013

Change the Weather History Date:

Friday, July 19, 2013

  Actual Average (KPBF) Record (KPBF)
Temperature  
Mean Temperature 79 °F 82 °F  
Max Temperature 90 °F 92 °F 106 °F (1980)
Min Temperature 69 °F 72 °F 63 °F (2009)
Degree Days  
Heating Degree Days 0 0  
Month to date heating degree days 0  
Since 1 June heating degree days 0  
Since 1 July heating degree days 0  
Cooling Degree Days 14 17  
Month to date cooling degree days 322  
Year to date cooling degree days 1051  
Since 1 June cooling degree days 744  
Growing Degree Days 29 (Base 50)    
Moisture  
Dew Point 70 °F    
Average Humidity 86    
Maximum Humidity 100    
Minimum Humidity 52    
Precipitation  
Precipitation 0.00 in 0.13 in 2.69 in (1948)
Month to date precipitation 2.42  
Year to date precipitation 29.20  
Snow  
Snow 0.00 in 0.00 in - ()
Month to date snowfall 0.0  
Since 1 June snowfall 0.0  
Since 1 July snowfall 0.0  
Snow Depth -    
Sea Level Pressure  
Sea Level Pressure 30.04 in    
Wind  
Wind Speed 1 mph (SSW)    
Max Wind Speed 7 mph    
Max Gust Speed -    
Visibility 6 miles    
Events Fog    
T = Trace of Precipitation, MM = Missing Value Source: NWS Daily Summary

Daily Weather History Graph

Daily Weather History Graph

Search for Another Location

Airport or City:

Trip Planner

Search our weather history database for the weather conditions in past years. The results will help you decide how hot, cold, wet, or windy it might be!

Date:

Astronomy

Jul. 19, 2013 Rise Set
Actual Time 6:10 AM CDT 8:15 PM CDT
Civil Twilight 5:42 AM CDT 8:43 PM CDT
Nautical Twilight 5:08 AM CDT 9:18 PM CDT
Astronomical Twilight 4:31 AM CDT 9:54 PM CDT
Moon 5:19 PM CDT (7/19) 2:51 AM CDT (7/19)
Length of Visible Light 15h 01m
Length of Day
14h 05m
Waxing Gibbous, 87% of the Moon is Illuminated
Jul 19
Waxing Gibbous
Jul 22
Full
Jul 29
Last Quarter
Aug 6
New
Aug 14
First Quarter

Hourly Weather History & Observations

Time (CDT) Temp. Heat Index Dew Point Humidity Pressure Visibility Wind Dir Wind Speed Gust Speed Precip Events Conditions
12:10 AM 71.6 °F - 69.8 °F 94% 30.08 in 10.0 mi Calm Calm - N/A   Scattered Clouds
12:19 AM 71.6 °F - 69.8 °F 94% 30.08 in 6.0 mi Calm Calm - N/A   Mostly Cloudy
12:28 AM 71.6 °F - 69.8 °F 94% 30.07 in 1.8 mi Calm Calm - N/A   Overcast
12:42 AM 71.6 °F - 69.8 °F 94% 30.08 in 0.8 mi Calm Calm - N/A   Mist
12:50 AM 71.6 °F - 69.8 °F 94% 30.08 in 1.2 mi Calm Calm - N/A   Overcast
12:53 AM 71.1 °F - 70.0 °F 96% 30.07 in 0.8 mi ENE 3.5 mph - N/A   Mist
1:06 AM 71.6 °F - 69.8 °F 94% 30.07 in 0.2 mi Calm Calm - N/A Fog Fog
1:53 AM 71.1 °F - 69.1 °F 93% 30.04 in 0.2 mi Calm Calm - N/A Fog Fog
2:19 AM 69.8 °F - 69.8 °F 100% 30.05 in 0.5 mi Calm Calm - N/A Fog Fog
2:46 AM 69.8 °F - 69.8 °F 100% 30.04 in 1.2 mi Calm Calm - N/A   Overcast
2:53 AM 70.0 °F - 69.1 °F 97% 30.04 in 1.5 mi SW 3.5 mph - N/A   Overcast
3:02 AM 69.8 °F - 69.8 °F 100% 30.05 in 0.5 mi WSW 3.5 mph - N/A Fog Fog
3:39 AM 71.6 °F - 69.8 °F 94% 30.05 in 2.0 mi West 5.8 mph - N/A   Overcast
3:53 AM 71.1 °F - 69.1 °F 93% 30.05 in 10.0 mi West 4.6 mph - N/A   Overcast
4:12 AM 69.8 °F - 69.8 °F 100% 30.05 in 10.0 mi Calm Calm - N/A   Overcast
4:29 AM 69.8 °F - 69.8 °F 100% 30.05 in 10.0 mi Calm Calm - N/A   Scattered Clouds
4:53 AM 70.0 °F - 69.1 °F 97% 30.05 in 7.0 mi Calm Calm - N/A   Clear
5:44 AM 69.8 °F - 68.0 °F 94% 30.05 in 6.0 mi Calm Calm - N/A   Scattered Clouds
5:53 AM 70.0 °F - 68.0 °F 93% 30.05 in 3.0 mi Calm Calm - N/A   Mostly Cloudy
5:56 AM 69.8 °F - 69.8 °F 100% 30.06 in 1.5 mi Calm Calm - N/A   Mostly Cloudy
6:06 AM 69.8 °F - 69.8 °F 100% 30.06 in 0.2 mi Calm Calm - N/A Fog Fog
6:49 AM 69.8 °F - 68.0 °F 94% 30.06 in 0.5 mi Calm Calm - N/A Fog Fog
6:53 AM 69.1 °F - 68.0 °F 96% 30.06 in 0.5 mi Calm Calm - N/A Fog Fog
7:04 AM 69.8 °F - 69.8 °F 100% 30.07 in 2.0 mi Calm Calm - N/A   Overcast
7:12 AM 69.8 °F - 69.8 °F 100% 30.07 in 3.0 mi Calm Calm - N/A   Overcast
7:19 AM 69.8 °F - 69.8 °F 100% 30.07 in 2.0 mi Calm Calm - N/A   Overcast
7:29 AM 69.8 °F - 69.8 °F 100% 30.07 in 6.0 mi Calm Calm - N/A   Mostly Cloudy
7:53 AM 71.1 °F - 70.0 °F 96% 30.07 in 6.0 mi Calm Calm - N/A   Mostly Cloudy
8:25 AM 73.4 °F - 69.8 °F 88% 30.08 in 10.0 mi Calm Calm - N/A   Partly Cloudy
8:53 AM 75.9 °F - 70.0 °F 82% 30.07 in 10.0 mi Calm Calm - N/A   Clear
9:53 AM 79.0 °F - 70.0 °F 74% 30.07 in 10.0 mi Calm Calm - N/A   Clear
10:53 AM 82.9 °F 86.5 °F 69.1 °F 63% 30.07 in 10.0 mi SW 4.6 mph - N/A   Clear
11:53 AM 84.9 °F 89.4 °F 70.0 °F 61% 30.06 in 10.0 mi Calm Calm - N/A   Mostly Cloudy
12:53 PM 87.1 °F 91.3 °F 69.1 °F 55% 30.04 in 10.0 mi SSW 5.8 mph - N/A   Mostly Cloudy
1:53 PM 87.1 °F 91.3 °F 69.1 °F 55% 30.01 in 10.0 mi Calm Calm - N/A   Partly Cloudy
2:53 PM 87.1 °F 90.6 °F 68.0 °F 53% 29.99 in 10.0 mi SSW 5.8 mph - N/A   Overcast
3:53 PM 89.1 °F 93.7 °F 69.1 °F 52% 29.96 in 10.0 mi SSE 5.8 mph - N/A   Partly Cloudy
4:53 PM 89.1 °F 94.1 °F 70.0 °F 53% 29.94 in 10.0 mi Variable 3.5 mph - N/A   Mostly Cloudy
5:53 PM 89.1 °F 94.1 °F 70.0 °F 53% 29.94 in 10.0 mi SSE 6.9 mph - N/A   Clear
6:53 PM 87.1 °F 92.8 °F 71.1 °F 59% 29.95 in 10.0 mi SSE 4.6 mph - N/A   Clear
7:53 PM 84.9 °F 90.7 °F 72.0 °F 65% 29.96 in 10.0 mi Calm Calm - 0.00 in   Clear
8:53 PM 79.0 °F - 73.9 °F 84% 29.97 in 10.0 mi Calm Calm - N/A   Clear
9:53 PM 79.0 °F - 71.1 °F 77% 29.97 in 10.0 mi Calm Calm - N/A   Clear
10:53 PM 75.0 °F - 72.0 °F 90% 29.97 in 10.0 mi Calm Calm - N/A   Clear
11:53 PM 75.0 °F - 71.1 °F 87% 29.95 in 10.0 mi Calm Calm - N/A   Clear